Regional Weather Roundup
Issued by NWS Northern Indiana

Home | Current Version | Previous Version | Graphics & Text | Print | Product List | Glossary On
Versions: 1 2 3 4 5 6 7 8 9 10 11 12 13 14 15 16 17 18 19 20 21 22 23 24 25 26 27 28 29 30 31 32 33 34 35 36 37 38 39 40 41 42 43 44 45 46 47 48 49 50
000
ASUS43 KIWX 181910
RWRIWX

KIWX WEATHER ROUNDUP
NATIONAL WEATHER SERVICE NORTHERN INDIANA
300 PM EDT THU SEP 18 2014

NOTE: "FAIR" INDICATES FEW OR NO CLOUDS BELOW 12,000 FEET WITH NO
SIGNIFICANT WEATHER AND/OR OBSTRUCTIONS TO VISIBILITY.

* THESE STATIONS ARE NOT UNDER NWS QUALITY CONTROL. THEY ALSO MAY NOT
  REPORT WEATHER SUCH AS PRECIPITATION OR FOG.

INZ001>027-182000-
NORTHERN INDIANA

CITY           SKY/WX    TMP DP  RH WIND       PRES   REMARKS
GARY*          SUNNY     70  46  43 NE7       30.14F
VALPARAISO     SUNNY     72  49  44 E9        30.13F
MICHIGAN CITY* SUNNY     66  50  55 N6        30.13F
LAPORTE*       SUNNY     70  47  44 NE6       30.14S
KNOX*          SUNNY     70  47  44 NE7       30.12F
SOUTH BEND     SUNNY     71  47  42 VRB7      30.13F
ELKHART*       SUNNY     70  46  43 CALM      30.14F
GOSHEN         SUNNY     71  50  47 NE8       30.13F
MONTICELLO*    SUNNY     70  49  47 E6        30.10F
LOGANSPORT*    SUNNY     70  46  43 NE8       30.11F
ROCHESTER*     SUNNY     73  46  38 E8        30.12F
WARSAW*        SUNNY     68  50  52 E8        30.13F
ANGOLA*        SUNNY     70  48  46 NE8       30.13F
FORT WAYNE     MOSUNNY   69  50  50 NE6       30.12F
HUNTINGTON*    SUNNY     69  50  51 E6        30.12S
PERU/GRISSOM   SUNNY     71  52  52 NE10G17   30.11F
MARION*        SUNNY     70  45  40 E7G16     30.12F

$$
INZ028>050-182000-
CENTRAL INDIANA

CITY           SKY/WX    TMP DP  RH WIND       PRES   REMARKS
LAFAYETTE      SUNNY     69  47  45 VRB3      30.10F
KOKOMO*        SUNNY     70  50  49 E10       30.11S
MUNCIE*        SUNNY     71  22  15 NE12G17   30.11S
INDIANAPOLIS   MOSUNNY   70  47  43 E7        30.08F

$$
MIZ043>046-050>051-056>058-064>065-071>073-077>080-182000-
SOUTHWEST LOWER MICHIGAN

CITY           SKY/WX    TMP DP  RH WIND       PRES   REMARKS
BATTLE CREEK   SUNNY     67  50  54 E3        30.15F
BENTON HARBOR  SUNNY     65  51  60 N7        30.14F
COLDWATER*     MOSUNNY   70  51  51 NE3       30.14S
HILLSDALE*     MOSUNNY   68  48  48 N5        30.14S
HOLLAND        PTSUNNY   70  52  52 N6        30.16F
GRAND RAPIDS   PTSUNNY   67  54  63 NE6       30.16F
KALAMAZOO      PTSUNNY   70  49  47 NE5       30.15F
STURGIS*       SUNNY     68  48  49 N3        30.13F
THREE RIVERS*  FAIR      70  51  50 NE3       30.14F

$$
OHZ001>008-015>018-024>025-182000-
NORTHWEST OHIO

CITY           SKY/WX    TMP DP  RH WIND       PRES   REMARKS
WAUSEON*       FAIR      70  46  43 CALM      30.12F
DEFIANCE       SUNNY     71  47  42 E7        30.12F
FINDLAY        SUNNY     73  48  41 NE9       30.10F
TOLEDO EXPRESS SUNNY     70  48  45 VRB6      30.12F
TOLEDO METCALF SUNNY     69  50  50 E6        30.13F
LIMA           SUNNY     72  48  42 NE8       30.11F

$$
&&


USA.gov is the U.S. government's official web portal to all federal, state and local government web resources and services.